Showing default

ORBCOMM FM 17, 25413

Orbit data source: Space-Track

ORBCOMM FM 17, 25413 is a payload satellite owned by Orbcomm (US) in LEO that was launched on Sun, 02 Aug 1998 UTC via a PEGASUS XL/HAPS launch vehicle from the Pegasus Launch, Eastern Range Air Space (ERAS). Payloads include a variety of satellites, spacecraft, and rockets equipped with specific instruments for various scientific and technological missions. These include communications satellites like Starlink; space stations such as the ISS; scientific satellites like the Hubble; Earth observation satellites from companies like Planet Labs, Umbra, and HawkEye 360; GPS; miniature CubeSats for education and research; and military/defense satellites.

Loading next visibility...
ORBCOMM FM 17 details
Identifier
25413, 1998-046A
Orbit
LEO
Last TLE update10 hours ago
Origin
Flag of USOrbcomm (US / ORB)
ManufacturerOSC-Germantown
MissionNon-operational Commercial Communications
Bus & MotorMICROSTAR, Unknown motor
Mass42 kg wet, 42 kg dry
Launch date (UTC)
1998-08-02 (26 years ago)
Launch vehicle
PEGASUS XL/HAPS
Launch site
Pegasus Launch, Eastern Range Air Space (ERAS)
Object type
Payload
Rocket body
Debris
Shape & HBRCyl + 2 Pan, 4.3 m
Radar Cross Section1.484 m², Medium (>0.1 m² and < 1m²)

Expand to show TLE details & history

TLE from 10 hours ago
0 ORBCOMM FM 17
1 25413U 98046A   24361.44231864  .00002884  00000-0  10647-2 0  9992
2 25413  44.9954 352.4990 0001950   4.7608 355.3257 14.34409452378367
Epoch: 2024-12-26T10:36Z
Definitive object data (Epoch: 2024-12-26T10:36:56.33Z)
Latitude-0.00002°
Longitude97.84262°
Altitude775.637 km
Speed7.468 km/s
True Right ascension23h 29m 59s
True Declination0° 00' 00"
Sunlit
Object was in daylight at TLE epoch
Visualization TLE readout
Latitude22.53316°
Longitude120.21975°
Altitude775.586 km
Speed7.47 km/s
Apparent Right ascension03h 48m 58s
Apparent Declination-10° 59' 36"
Sunlit
Object is in daylight
Visualization observer readout
Local Sidereal Time20:10:40
Azimuth82.613° E
Elevation-25.819°
Doppler factor1
Orbital elements
Apogee altitude779.969 km
Perigee altitude777.178 km
Semi-major axis7,156.711 km
Eccentricity0.000195
Inclination44.9954°
RAAN352.499°
Arg. of periapsis4.7608°
True anomaly355.32388°
Mean anomaly355.3257°
Eccentric anomaly355.32479°
Mean motion3.58487 °/min
BSTAR0.0010647
Orbital period100.42 mins
Loading maneuver chart data...

ORBCOMM FM 17 Visibility forecast

Observer location: undefined°, undefined

Span
Click to sort rows by Start time (UTC) header in descending order
Start Az.
Max El. time (UTC)
Max El. Az.
Max El.
End time (UTC)
End Az.
8 mins2024-12-27 01:48:46.848Z191.98° SSW2024-12-27 01:52:46.848Z139.978° SSE23.842°2024-12-27 01:56:46.848Z87.116° E
9 mins2024-12-27 03:33:46.848Z244.668° WSW2024-12-27 03:37:46.848Z233.945° WSW44.94°2024-12-27 03:42:46.848Z66.755° ENE
9 mins2024-12-27 05:19:46.848Z283.945° WNW2024-12-27 05:23:46.848Z356.678° N37.712°2024-12-27 05:28:46.848Z70.278° E
9 mins2024-12-27 07:05:46.848Z297.339° NW2024-12-27 07:09:46.848Z15.27° NNE41.476°2024-12-27 07:14:46.848Z95.308° ESE
8 mins2024-12-27 08:51:46.848Z281.117° WNW2024-12-27 08:54:46.848Z232.579° WSW37.491°2024-12-27 08:59:46.848Z140.15° SSE
|